Regional Weather Roundup
Issued by NWS State College, PA

Home | Current Version | Previous Version | Graphics & Text | Print | Product List | Glossary Off
Versions: 1 2 3 4 5 6 7 8 9 10 11 12 13 14 15 16 17 18 19 20 21 22 23 24 25 26 27 28 29 30 31 32 33 34 35 36 37 38 39 40 41 42 43 44 45 46 47 48 49 50

000
ASUS41 KCTP 181203
RWRCTP

REGIONAL WEATHER ROUNDUP
NATIONAL WEATHER SERVICE STATE COLLEGE PA
800 AM EDT THU SEP 18 2014

Note: "fair" indicates few or no clouds below 12,000 feet with no
significant weather and/or obstructions to visibility.

* = STATION THAT DOES NOT REPORT PRECIPITATION /E.G. RAIN...SNOW...ETC/
    THUNDER OR FOG.

PAZ002>004-007>009-013>016-020>023-029>032-181300-
WESTERN PENNSYLVANIA

CITY           SKY/WX    TMP DP  RH WIND       PRES   REMARKS
ERIE           PTCLDY    50  45  83 S3        30.06R
MEADVILLE      CLEAR     47  46  97 CALM      30.06R FOG
FRANKLIN*      CLEAR     43  39  87 CALM      30.08R
NEW CASTLE     NOT AVBL
BEAVER COUNTY  CLEAR     48  46  93 CALM      30.06R
BUTLER*        PTCLDY    46  45  93 CALM      30.08R
PITTSBURGH INT NOT AVBL
PITTSBURGH     PTCLDY    52  48  86 N5        30.05R FOG
INDIANA*       MOSUNNY   46  46 100 MISG      30.09R FOG
LATROBE        PTSUNNY   46  46 100 CALM      30.06R FOG
WASHINGTON CO* MOCLDY    46  45  93 CALM      30.06R VSB 3/4
$$

PAZ004>006-010>012-017>019-024>028-033>037-041-042-045-046-049>053-181300-
CENTRAL PENNSYLVANIA

CITY           SKY/WX    TMP DP  RH WIND       PRES   REMARKS
BRADFORD       FOG       39  38  96 CALM      30.06R VSB 3/4
DUBOIS         SUNNY     45  44  97 CALM      30.05R
CLEARFIELD     CLOUDY    45  45 100 CALM      30.06R FOG
JOHNSTOWN      MOSUNNY   51  47  86 CALM      30.04R
ALTOONA        SUNNY     50  49  96 CALM      30.04R FOG
STATE COLLEGE  FOG       48  48 100 CALM      30.04R VSB 1/8
WILLIAMSPORT   FOG       50  48  93 NW5       30.04R VSB 1/2
SELINSGROVE    PTSUNNY   51  50  96 CALM      30.04R FOG
FT INDIANTOWN  PTSUNNY   51  51 100 CALM      30.02R
CAPITAL CITY   PTSUNNY   55  51  86 CALM      30.02R
HARRISBURG     PTSUNNY   56  50  80 CALM      30.01R
YORK           CLOUDY    54  52  93 CALM      30.01R
$$

PAZ038>040-043-044-047-048-054-055-060>062-067>071-181300-
EASTERN PENNSYLVANIA

CITY           SKY/WX    TMP DP  RH WIND       PRES   REMARKS
SCRANTON       CLOUDY    49  44  83 CALM      30.03R
MOUNT POCONO   CLOUDY    48  50 100 W3        30.03R
ALLENTOWN      CLOUDY    51  47  86 CALM      30.02R
QUAKERTOWN*    CLOUDY    48  46  93 CALM      30.02S
READING        CLOUDY    52  49  89 NE3       30.01R
LANCASTER      MOSUNNY   52  49  89 CALM      30.01R
COATESVILLE    PTSUNNY   57  54  88 CALM      30.02R
POTTSTOWN      CLOUDY    52  49  89 CALM      30.03R
BLUE BELL      MOSUNNY   52  52 100 CALM      30.01R
DOYLESTOWN     PTSUNNY   51  51 100 CALM      30.01R
WILLOW GROVE   NOT AVBL
NORTH PHILA    PTSUNNY   58  52  80 CALM      30.02S
PHILADELPHIA   MOSUNNY   60  51  72 N5        30.01S
$$


USA.gov is the U.S. government's official web portal to all federal, state and local government web resources and services.